contact:dominique.lefevre@mio.osupytheas.fr, maurice.libes@osupytheas.fr, didier.mallarino@osupytheas.fr
Project:EMSO http://www.emso-fr.org/EMSO-France
Depth: 2436.0 m
Title:EMSO Ligure Ouest : Data MII capteur AQUADOPP
Date,Latitude,Longitude,X_East,Y_North,Z_Up,Amplitude_X,Amplitude_Y,Amplitude_Z,Batterie,SoundSpeed,Heading,Pitch,Roll,Pressure,TIS,Speed,Direction
, degrees North, degrees East, m.s-1, m.s-1,m.s-1, 1, 1, 1, Volt, m.s-1, degree, degree, degree, dbar, degree_C, m.s-1, degree
2019-08-25T00:00:41,42.805,6.029,0.025,-0.006,-0.014,102.0,105.0,98.0,13.3,1505.3,326.7,-0.7,1.9,2470.131,13.33,0.025,103.5
2019-08-25T00:03:42,42.805,6.029,0.027,0.006,0.004,102.0,104.0,100.0,13.4,1505.3,323.0,-0.7,1.8,2470.153,13.33,0.027,77.5
2019-08-25T00:06:43,42.805,6.029,0.02,-0.004,-0.044,102.0,105.0,98.0,13.4,1505.3,325.0,-0.7,1.8,2470.113,13.33,0.02,101.3
2019-08-25T00:09:44,42.805,6.029,0.015,-0.011,-0.073,103.0,105.0,99.0,13.4,1505.3,326.4,-0.7,1.8,2470.127,13.33,0.018,126.3
2019-08-25T00:12:45,42.805,6.029,0.023,-0.013,-0.053,103.0,105.0,99.0,13.3,1505.3,323.5,-0.7,1.9,2470.117,13.33,0.026,119.5
2019-08-25T00:15:46,42.805,6.029,-0.008,0.001,-0.041,101.0,106.0,99.0,13.4,1505.3,324.7,-0.8,1.8,2470.169,13.33,0.008,277.1
2019-08-25T00:18:47,42.805,6.029,0.0,0.004,-0.03,103.0,105.0,100.0,13.3,1505.3,323.4,-0.7,1.8,2470.041,13.33,0.004,0.0
2019-08-25T00:21:48,42.805,6.029,0.001,-0.009,-0.048,103.0,104.0,99.0,13.3,1505.3,326.0,-0.7,1.8,2470.101,13.33,0.009,173.7
2019-08-25T00:24:49,42.805,6.029,-0.013,0.004,-0.038,103.0,104.0,100.0,13.4,1505.3,325.9,-0.7,1.8,2470.11,13.33,0.013,287.1
2019-08-25T00:27:50,42.805,6.029,-0.005,0.003,-0.026,102.0,103.0,98.0,13.4,1505.3,325.6,-0.7,1.8,2470.145,13.33,0.005,301.0
2019-08-25T00:30:51,42.805,6.029,0.007,0.007,-0.039,105.0,103.0,98.0,13.4,1505.3,323.1,-0.7,1.8,2470.122,13.33,0.009,45.0
2019-08-25T00:33:52,42.805,6.029,0.043,0.019,-0.019,100.0,105.0,99.0,13.4,1505.3,326.4,-0.7,1.9,2470.136,13.33,0.047,66.2
2019-08-25T00:36:53,42.805,6.029,0.034,0.006,-0.007,102.0,104.0,99.0,13.4,1505.3,325.4,-0.7,1.8,2470.127,13.33,0.034,80.0
2019-08-25T00:39:54,42.805,6.029,0.049,0.015,0.003,102.0,106.0,100.0,13.3,1505.3,325.1,-0.7,1.8,2470.194,13.33,0.051,73.0
2019-08-25T00:42:55,42.805,6.029,0.03,0.025,-0.013,102.0,104.0,100.0,13.3,1505.3,326.9,-0.7,1.8,2470.121,13.33,0.039,50.2
2019-08-25T00:45:56,42.805,6.029,0.028,0.001,-0.024,104.0,105.0,99.0,13.3,1505.3,323.1,-0.7,1.8,2470.118,13.33,0.028,88.0
2019-08-25T00:48:57,42.805,6.029,0.003,0.001,0.017,103.0,104.0,100.0,13.3,1505.3,327.7,-0.7,1.8,2470.157,13.33,0.003,71.6
2019-08-25T00:51:58,42.805,6.029,0.0,0.004,-0.014,101.0,104.0,100.0,13.3,1505.3,324.9,-0.7,1.8,2470.152,13.33,0.004,0.0
2019-08-25T00:54:59,42.805,6.029,0.044,0.006,-0.039,103.0,104.0,99.0,13.4,1505.3,327.4,-0.7,1.8,2470.133,13.33,0.044,82.2
2019-08-25T00:58:00,42.805,6.029,-0.005,0.007,-0.042,103.0,105.0,100.0,13.3,1505.3,326.8,-0.7,1.8,2470.123,13.33,0.008,324.5
2019-08-25T01:01:01,42.805,6.029,0.042,0.007,-0.027,102.0,103.0,99.0,13.4,1505.3,326.4,-0.7,1.8,2470.131,13.33,0.042,80.5
2019-08-25T01:04:02,42.805,6.029,0.025,0.005,-0.009,102.0,105.0,99.0,13.3,1505.3,324.6,-0.7,1.8,2470.124,13.33,0.025,78.7
2019-08-25T01:07:03,42.805,6.029,-0.027,-0.02,-0.035,102.0,104.0,101.0,13.3,1505.3,325.8,-0.7,1.9,2470.137,13.33,0.033,233.5
2019-08-25T01:10:04,42.805,6.029,0.007,-0.001,-0.027,102.0,103.0,99.0,13.4,1505.3,324.2,-0.7,1.8,2470.139,13.33,0.007,98.1
2019-08-25T01:13:05,42.805,6.029,-0.005,-0.005,-0.022,102.0,104.0,99.0,13.3,1505.3,326.8,-0.7,1.8,2470.143,13.33,0.007,225.0
2019-08-25T01:16:06,42.805,6.029,0.0,0.004,-0.034,101.0,104.0,100.0,13.3,1505.3,323.2,-0.7,1.9,2470.119,13.33,0.004,0.0
2019-08-25T01:19:07,42.805,6.029,-0.001,-0.008,-0.06,103.0,103.0,99.0,13.3,1505.3,324.5,-0.7,1.8,2470.143,13.33,0.008,187.1
2019-08-25T01:22:08,42.805,6.029,-0.006,0.007,-0.034,101.0,105.0,100.0,13.3,1505.3,326.5,-0.7,1.8,2470.133,13.33,0.009,319.4
2019-08-25T01:25:09,42.805,6.029,-0.035,-0.002,-0.043,101.0,105.0,100.0,13.3,1505.3,327.7,-0.7,1.9,2470.108,13.33,0.035,266.7
2019-08-25T01:28:10,42.805,6.029,0.033,0.007,0.011,101.0,106.0,100.0,13.4,1505.3,324.6,-0.7,1.8,2470.132,13.33,0.033,78.0
2019-08-25T01:31:11,42.805,6.029,-0.022,0.0,-0.063,102.0,104.0,99.0,13.4,1505.3,325.1,-0.7,1.8,2470.098,13.33,0.022,270.0
2019-08-25T01:34:12,42.805,6.029,-0.015,0.01,-0.064,101.0,105.0,100.0,13.4,1505.3,325.3,-0.7,1.8,2470.116,13.33,0.018,303.7
2019-08-25T01:37:13,42.805,6.029,-0.001,0.005,-0.049,104.0,107.0,99.0,13.4,1505.3,325.4,-0.7,1.8,2470.178,13.33,0.005,348.7
2019-08-25T01:40:14,42.805,6.029,0.006,0.0,-0.021,102.0,104.0,99.0,13.4,1505.3,326.1,-0.7,1.8,2470.154,13.33,0.006,90.0
2019-08-25T01:43:15,42.805,6.029,0.048,0.005,0.019,104.0,105.0,100.0,13.3,1505.3,326.4,-0.7,1.8,2470.121,13.33,0.048,84.1
2019-08-25T01:46:16,42.805,6.029,0.045,0.005,0.035,101.0,110.0,99.0,13.4,1505.4,326.0,-0.7,1.8,2470.109,13.34,0.045,83.7
2019-08-25T01:49:17,42.805,6.029,0.043,0.006,0.027,103.0,107.0,101.0,13.4,1505.4,324.7,-0.7,1.8,2470.111,13.34,0.043,82.1
2019-08-25T01:52:18,42.805,6.029,0.022,0.001,0.022,102.0,106.0,100.0,13.4,1505.3,323.8,-0.7,1.9,2470.11,13.33,0.022,87.4
2019-08-25T01:55:19,42.805,6.029,0.01,0.019,-0.028,102.0,106.0,99.0,13.4,1505.4,327.0,-0.7,1.8,2470.087,13.34,0.021,27.8
2019-08-25T01:58:20,42.805,6.029,0.048,0.017,0.003,101.0,105.0,99.0,13.4,1505.4,326.1,-0.7,1.8,2470.172,13.34,0.05,70.5
2019-08-25T02:01:21,42.805,6.029,0.037,0.01,0.019,103.0,106.0,100.0,13.3,1505.4,323.2,-0.7,1.8,2470.121,13.34,0.038,74.9
2019-08-25T02:04:22,42.805,6.029,0.06,0.004,0.007,101.0,106.0,100.0,13.3,1505.3,324.0,-0.7,1.8,2470.12,13.33,0.06,86.2
2019-08-25T02:07:23,42.805,6.029,0.043,0.017,0.048,103.0,106.0,99.0,13.3,1505.3,327.4,-0.7,1.8,2470.109,13.33,0.046,68.4
2019-08-25T02:10:24,42.805,6.029,0.052,-0.004,-0.011,100.0,106.0,101.0,13.4,1505.4,324.8,-0.7,1.8,2470.187,13.34,0.052,94.4
2019-08-25T02:13:25,42.805,6.029,-0.023,-0.01,-0.07,104.0,108.0,98.0,13.4,1505.4,326.5,-0.7,1.8,2470.164,13.34,0.025,246.5
2019-08-25T02:16:26,42.805,6.029,-0.001,-0.004,-0.041,102.0,109.0,99.0,13.4,1505.4,322.9,-0.7,1.8,2470.126,13.34,0.004,194.0
2019-08-25T02:19:27,42.805,6.029,0.052,0.014,0.001,103.0,106.0,99.0,13.3,1505.4,326.2,-0.7,1.8,2470.082,13.34,0.053,74.9
2019-08-25T02:22:28,42.805,6.029,0.067,0.001,0.03,104.0,106.0,99.0,13.4,1505.4,326.4,-0.7,1.8,2470.102,13.34,0.067,89.1
2019-08-25T02:25:29,42.805,6.029,-0.073,0.0,-0.107,101.0,106.0,99.0,13.3,1505.3,325.8,-0.7,1.8,2470.162,13.33,0.072,270.0
2019-08-25T02:28:30,42.805,6.029,0.053,-0.006,0.046,104.0,106.0,99.0,13.4,1505.3,326.0,-0.7,1.8,2470.097,13.33,0.053,96.5
2019-08-25T02:31:31,42.805,6.029,-0.023,-0.008,-0.067,103.0,103.0,98.0,13.3,1505.3,325.2,-0.7,1.8,2470.096,13.33,0.024,250.8
2019-08-25T02:34:32,42.805,6.029,0.037,0.009,-0.003,102.0,106.0,100.0,13.4,1505.3,324.7,-0.7,1.9,2470.084,13.33,0.038,76.3
2019-08-25T02:37:33,42.805,6.029,0.043,0.019,0.031,104.0,107.0,98.0,13.4,1505.3,326.0,-0.7,1.8,2470.111,13.33,0.047,66.2
2019-08-25T02:40:34,42.805,6.029,0.093,0.009,0.09,103.0,105.0,97.0,13.3,1505.4,326.0,-0.7,1.8,2470.088,13.34,0.093,84.5
2019-08-25T02:43:35,42.805,6.029,0.06,0.002,0.035,101.0,105.0,100.0,13.3,1505.4,322.7,-0.7,1.8,2470.087,13.34,0.06,88.1
2019-08-25T02:46:36,42.805,6.029,0.049,0.01,0.042,102.0,104.0,99.0,13.3,1505.4,324.9,-0.7,1.8,2470.095,13.34,0.05,78.5
2019-08-25T02:49:37,42.805,6.029,0.024,0.0,-0.028,101.0,106.0,99.0,13.4,1505.4,327.7,-0.7,1.9,2470.131,13.34,0.024,90.0
2019-08-25T02:52:38,42.805,6.029,0.031,0.029,0.015,102.0,105.0,99.0,13.4,1505.3,325.0,-0.7,1.8,2470.113,13.33,0.042,46.9
2019-08-25T02:55:39,42.805,6.029,0.061,0.004,0.018,103.0,107.0,98.0,13.4,1505.4,323.4,-0.7,1.8,2470.115,13.34,0.061,86.3
2019-08-25T02:58:40,42.805,6.029,0.067,0.01,0.04,101.0,106.0,99.0,13.4,1505.4,328.5,-0.7,1.8,2470.106,13.34,0.067,81.5
2019-08-25T03:01:41,42.805,6.029,0.012,0.017,0.015,101.0,106.0,98.0,13.3,1505.4,325.0,-0.7,1.8,2470.14,13.34,0.02,35.2
2019-08-25T03:04:42,42.805,6.029,0.04,0.026,0.04,100.0,106.0,100.0,13.4,1505.4,325.3,-0.7,1.8,2470.129,13.34,0.047,57.0
2019-08-25T03:07:43,42.805,6.029,0.104,0.026,0.086,102.0,106.0,98.0,13.3,1505.4,326.4,-0.7,1.8,2470.125,13.34,0.107,76.0
2019-08-25T03:10:44,42.805,6.029,0.035,0.013,-0.012,101.0,106.0,100.0,13.3,1505.4,324.7,-0.7,1.8,2470.081,13.34,0.037,69.6
2019-08-25T03:13:45,42.805,6.029,0.002,-0.003,-0.033,103.0,107.0,97.0,13.3,1505.4,323.1,-0.7,1.8,2470.132,13.34,0.003,146.3
2019-08-25T03:16:46,42.805,6.029,0.014,0.007,-0.008,102.0,106.0,98.0,13.3,1505.4,328.8,-0.7,1.9,2470.1,13.34,0.015,63.4
2019-08-25T03:19:47,42.805,6.029,0.068,-0.013,0.006,102.0,106.0,99.0,13.3,1505.4,325.9,-0.7,1.8,2470.099,13.34,0.069,100.8
2019-08-25T03:22:48,42.805,6.029,-0.022,0.007,-0.025,102.0,106.0,98.0,13.3,1505.4,323.4,-0.7,1.8,2470.09,13.34,0.023,287.6
2019-08-25T03:25:49,42.805,6.029,-0.063,0.015,-0.072,101.0,105.0,99.0,13.3,1505.4,328.3,-0.7,1.8,2470.089,13.34,0.064,283.4
2019-08-25T03:28:50,42.805,6.029,-0.031,0.006,-0.071,100.0,107.0,97.0,13.4,1505.4,324.2,-0.7,1.9,2470.147,13.34,0.031,281.0
2019-08-25T03:31:51,42.805,6.029,-0.045,0.01,-0.071,102.0,105.0,97.0,13.3,1505.4,326.5,-0.7,1.9,2470.111,13.34,0.046,282.5
2019-08-25T03:34:52,42.805,6.029,-0.019,-0.002,-0.057,100.0,106.0,99.0,13.3,1505.4,323.0,-0.8,1.9,2470.091,13.34,0.019,264.0
2019-08-25T03:37:53,42.805,6.029,-0.042,0.007,-0.081,102.0,104.0,100.0,13.4,1505.4,324.8,-0.7,1.8,2470.097,13.34,0.042,279.5
2019-08-25T03:40:54,42.805,6.029,-0.009,0.0,-0.056,102.0,106.0,98.0,13.4,1505.4,326.6,-0.7,1.8,2470.08,13.34,0.009,270.0
2019-08-25T03:43:55,42.805,6.029,-0.01,-0.003,-0.053,102.0,107.0,99.0,13.4,1505.4,324.7,-0.7,1.9,2470.128,13.34,0.01,253.3
2019-08-25T03:46:56,42.805,6.029,-0.04,0.026,-0.071,103.0,105.0,99.0,13.4,1505.4,325.2,-0.7,1.8,2470.143,13.34,0.047,303.0
2019-08-25T03:49:57,42.805,6.029,-0.022,0.0,-0.086,100.0,106.0,101.0,13.4,1505.4,324.5,-0.7,1.9,2470.122,13.34,0.022,270.0
2019-08-25T03:52:58,42.805,6.029,-0.05,-0.002,-0.067,101.0,105.0,99.0,13.4,1505.4,327.6,-0.7,1.8,2470.091,13.34,0.05,267.7
2019-08-25T03:55:59,42.805,6.029,-0.028,0.006,-0.065,104.0,104.0,99.0,13.4,1505.4,326.3,-0.7,1.8,2470.089,13.34,0.028,282.1
2019-08-25T03:59:00,42.805,6.029,-0.062,-0.014,-0.083,104.0,105.0,99.0,13.4,1505.4,326.7,-0.7,1.8,2470.093,13.34,0.063,257.3
2019-08-25T04:02:01,42.805,6.029,-0.025,-0.001,-0.071,102.0,107.0,100.0,13.3,1505.4,323.7,-0.7,1.8,2470.119,13.34,0.025,267.7
2019-08-25T04:05:02,42.805,6.029,-0.062,0.014,-0.085,103.0,107.0,98.0,13.4,1505.4,324.4,-0.7,1.8,2470.096,13.34,0.063,282.7
2019-08-25T04:08:03,42.805,6.029,-0.031,-0.005,-0.074,104.0,107.0,99.0,13.4,1505.4,323.3,-0.7,1.8,2470.04,13.34,0.031,260.8
2019-08-25T04:11:04,42.805,6.029,-0.036,-0.014,-0.046,105.0,106.0,100.0,13.4,1505.4,325.1,-0.7,1.8,2470.055,13.34,0.038,248.8
2019-08-25T04:14:05,42.805,6.029,0.003,0.008,-0.037,102.0,107.0,99.0,13.3,1505.4,323.1,-0.7,1.9,2470.073,13.34,0.008,20.6
2019-08-25T04:17:06,42.805,6.029,0.0,-0.007,-0.033,103.0,109.0,101.0,13.3,1505.4,326.5,-0.7,1.8,2470.055,13.34,0.007,180.0
2019-08-25T04:20:07,42.805,6.029,-0.007,0.021,-0.01,101.0,108.0,98.0,13.4,1505.4,326.4,-0.7,1.8,2470.121,13.34,0.022,341.6
2019-08-25T04:23:08,42.805,6.029,-0.025,0.0,-0.044,101.0,107.0,99.0,13.4,1505.4,323.4,-0.7,1.8,2470.088,13.34,0.025,270.0
2019-08-25T04:26:09,42.805,6.029,-0.022,0.012,-0.057,103.0,108.0,101.0,13.4,1505.4,325.1,-0.7,1.8,2470.057,13.34,0.025,298.6
2019-08-25T04:29:10,42.805,6.029,-0.038,0.019,-0.073,102.0,105.0,98.0,13.4,1505.4,326.9,-0.7,1.8,2470.088,13.34,0.042,296.6
2019-08-25T04:32:11,42.805,6.029,-0.031,0.014,-0.065,101.0,107.0,99.0,13.3,1505.4,322.9,-0.7,1.9,2470.139,13.34,0.034,294.3
2019-08-25T04:35:12,42.805,6.029,-0.018,0.014,-0.045,104.0,108.0,98.0,13.4,1505.4,324.6,-0.7,1.9,2470.088,13.34,0.022,307.9
2019-08-25T04:38:13,42.805,6.029,0.022,-0.013,-0.005,104.0,107.0,100.0,13.3,1505.4,325.2,-0.7,1.8,2470.075,13.34,0.025,120.6
2019-08-25T04:41:14,42.805,6.029,0.034,0.001,0.036,101.0,108.0,98.0,13.4,1505.4,325.2,-0.7,1.8,2470.124,13.34,0.034,88.3
2019-08-25T04:44:15,42.805,6.029,0.053,0.028,0.01,103.0,105.0,99.0,13.4,1505.4,324.7,-0.7,1.8,2470.09,13.34,0.059,62.1
2019-08-25T04:47:16,42.805,6.029,0.057,-0.011,0.004,103.0,107.0,101.0,13.3,1505.4,327.7,-0.7,1.9,2470.059,13.34,0.058,100.9
2019-08-25T04:50:17,42.805,6.029,0.024,-0.009,-0.011,103.0,107.0,99.0,13.3,1505.4,325.2,-0.7,1.8,2470.124,13.34,0.025,110.6
2019-08-25T04:53:18,42.805,6.029,0.016,0.002,-0.029,102.0,109.0,98.0,13.4,1505.4,325.0,-0.7,1.8,2470.012,13.34,0.016,82.9
2019-08-25T04:56:19,42.805,6.029,0.001,-0.004,-0.041,102.0,107.0,99.0,13.4,1505.4,325.5,-0.7,1.9,2470.069,13.34,0.004,166.0
2019-08-25T04:59:20,42.805,6.029,0.023,0.01,-0.009,103.0,106.0,100.0,13.4,1505.4,325.0,-0.7,1.9,2470.031,13.34,0.025,66.5
2019-08-25T05:02:21,42.805,6.029,0.007,-0.001,-0.061,104.0,107.0,99.0,13.4,1505.4,325.8,-0.7,1.8,2470.071,13.34,0.007,98.1
2019-08-25T05:05:22,42.805,6.029,-0.042,0.018,-0.037,101.0,106.0,99.0,13.4,1505.4,327.2,-0.7,1.8,2470.106,13.34,0.045,293.2
2019-08-25T05:08:23,42.805,6.029,-0.009,-0.013,-0.034,103.0,109.0,99.0,13.3,1505.4,323.4,-0.7,1.9,2470.129,13.34,0.015,214.7
2019-08-25T05:11:24,42.805,6.029,0.019,0.002,-0.02,101.0,108.0,100.0,13.4,1505.4,326.2,-0.7,1.8,2470.105,13.34,0.019,84.0
2019-08-25T05:14:25,42.805,6.029,0.034,0.012,-0.02,101.0,109.0,101.0,13.4,1505.4,326.5,-0.7,1.8,2470.043,13.34,0.036,70.6
2019-08-25T05:17:26,42.805,6.029,0.026,-0.002,-0.044,103.0,107.0,99.0,13.4,1505.4,323.8,-0.8,1.8,2470.05,13.34,0.026,94.4
2019-08-25T05:20:27,42.805,6.029,0.033,0.016,0.024,104.0,108.0,100.0,13.4,1505.4,327.1,-0.7,1.8,2470.048,13.34,0.036,64.1
2019-08-25T05:23:28,42.805,6.029,-0.001,0.016,-0.002,101.0,110.0,99.0,13.4,1505.4,324.6,-0.8,1.8,2470.117,13.34,0.016,356.4
2019-08-25T05:26:29,42.805,6.029,0.044,0.011,0.0,102.0,107.0,98.0,13.4,1505.4,324.8,-0.8,1.8,2470.065,13.34,0.045,76.0
2019-08-25T05:29:30,42.805,6.029,0.051,0.018,0.01,102.0,107.0,100.0,13.3,1505.4,327.0,-0.7,1.9,2470.027,13.34,0.054,70.6
2019-08-25T05:32:31,42.805,6.029,0.037,-0.001,0.054,102.0,106.0,100.0,13.3,1505.4,325.5,-0.7,1.8,2470.073,13.34,0.037,91.5
2019-08-25T05:35:32,42.805,6.029,0.033,0.001,0.033,103.0,106.0,100.0,13.4,1505.4,326.0,-0.7,1.8,2470.064,13.34,0.033,88.3
2019-08-25T05:38:33,42.805,6.029,0.075,0.012,0.01,102.0,104.0,101.0,13.4,1505.4,325.1,-0.7,1.8,2470.071,13.34,0.075,80.9
2019-08-25T05:41:34,42.805,6.029,0.047,-0.004,-0.006,103.0,107.0,97.0,13.4,1505.4,327.0,-0.7,1.8,2470.086,13.34,0.047,94.9
2019-08-25T05:44:35,42.805,6.029,0.033,0.011,0.025,104.0,107.0,97.0,13.4,1505.4,325.2,-0.7,1.8,2470.065,13.34,0.034,71.6
2019-08-25T05:47:36,42.805,6.029,0.064,0.01,0.047,100.0,107.0,100.0,13.4,1505.4,326.9,-0.7,1.8,2470.089,13.34,0.064,81.1
2019-08-25T05:50:37,42.805,6.029,0.013,0.0,0.03,104.0,108.0,100.0,13.3,1505.4,326.8,-0.7,1.8,2470.063,13.34,0.013,90.0
2019-08-25T05:53:38,42.805,6.029,0.025,0.016,-0.001,103.0,109.0,99.0,13.4,1505.4,326.2,-0.7,1.8,2470.105,13.35,0.029,57.4
2019-08-25T05:56:39,42.805,6.029,0.03,0.017,0.003,107.0,108.0,98.0,13.4,1505.4,326.2,-0.7,1.8,2470.099,13.35,0.034,60.5
2019-08-25T05:59:40,42.805,6.029,-0.007,0.013,-0.011,103.0,109.0,100.0,13.3,1505.4,323.0,-0.7,1.8,2470.092,13.35,0.014,331.7
2019-08-25T06:02:41,42.805,6.029,0.015,0.008,-0.006,102.0,106.0,100.0,13.3,1505.4,324.9,-0.7,1.8,2470.086,13.35,0.017,61.9
2019-08-25T06:05:42,42.805,6.029,0.03,-0.01,-0.007,106.0,107.0,99.0,13.4,1505.4,323.0,-0.7,1.9,2470.089,13.35,0.031,108.4
2019-08-25T06:08:43,42.805,6.029,0.002,0.015,-0.006,102.0,107.0,100.0,13.3,1505.4,323.3,-0.7,1.8,2470.052,13.35,0.015,7.6
2019-08-25T06:11:44,42.805,6.029,0.022,-0.006,0.001,103.0,108.0,99.0,13.4,1505.4,326.0,-0.7,1.9,2470.079,13.35,0.022,105.3
2019-08-25T06:14:45,42.805,6.029,-0.009,-0.002,-0.046,102.0,105.0,99.0,13.4,1505.4,327.2,-0.7,1.8,2470.052,13.35,0.009,257.5
2019-08-25T06:17:46,42.805,6.029,0.009,0.015,0.008,103.0,109.0,100.0,13.4,1505.4,328.5,-0.7,1.8,2470.038,13.35,0.017,31.0
2019-08-25T06:20:47,42.805,6.029,0.02,0.025,0.017,101.0,108.0,98.0,13.4,1505.4,327.4,-0.7,1.8,2470.065,13.35,0.032,38.7
2019-08-25T06:23:48,42.805,6.029,0.003,-0.005,-0.032,106.0,105.0,99.0,13.3,1505.4,325.6,-0.7,1.8,2470.029,13.35,0.005,149.0
2019-08-25T06:26:49,42.805,6.029,0.005,-0.001,-0.005,105.0,107.0,99.0,13.3,1505.4,327.6,-0.7,1.8,2470.048,13.35,0.005,101.3
2019-08-25T06:29:50,42.805,6.029,0.011,-0.002,-0.002,104.0,106.0,98.0,13.4,1505.4,325.1,-0.7,1.8,2470.046,13.35,0.011,100.3
2019-08-25T06:32:51,42.805,6.029,0.008,0.003,-0.027,103.0,109.0,98.0,13.3,1505.4,325.8,-0.7,1.8,2470.082,13.35,0.008,69.4
2019-08-25T06:35:52,42.805,6.029,-0.006,-0.001,-0.028,104.0,104.0,103.0,13.3,1505.4,322.9,-0.7,1.9,2470.035,13.35,0.006,260.5
2019-08-25T06:38:53,42.805,6.029,-0.003,0.004,-0.029,103.0,105.0,102.0,13.4,1505.4,324.9,-0.7,1.9,2470.055,13.35,0.005,323.1
2019-08-25T06:41:54,42.805,6.029,0.007,0.007,0.014,103.0,107.0,99.0,13.4,1505.4,326.0,-0.7,1.8,2470.035,13.35,0.009,45.0
2019-08-25T06:44:55,42.805,6.029,-0.011,0.006,-0.023,104.0,106.0,99.0,13.4,1505.4,326.3,-0.7,1.8,2470.017,13.35,0.012,298.6
2019-08-25T06:47:56,42.805,6.029,-0.005,0.01,0.005,102.0,107.0,98.0,13.4,1505.4,325.8,-0.7,1.8,2470.069,13.35,0.011,333.4
2019-08-25T06:50:57,42.805,6.029,0.016,0.026,0.024,103.0,107.0,109.0,13.4,1505.4,323.3,-0.7,1.8,2470.014,13.35,0.03,31.6
2019-08-25T06:53:58,42.805,6.029,0.022,-0.001,-0.015,102.0,105.0,100.0,13.3,1505.4,326.3,-0.7,1.8,2470.034,13.35,0.022,92.6
2019-08-25T06:56:59,42.805,6.029,-0.02,0.006,-0.055,104.0,107.0,98.0,13.3,1505.4,326.9,-0.7,1.8,2470.02,13.35,0.02,286.7
2019-08-25T07:00:00,42.805,6.029,-0.028,0.011,-0.045,102.0,107.0,99.0,13.4,1505.4,324.5,-0.7,1.8,2470.047,13.35,0.03,291.4
2019-08-25T07:03:01,42.805,6.029,0.023,-0.012,-0.013,103.0,107.0,98.0,13.4,1505.4,324.4,-0.7,1.9,2470.046,13.35,0.025,117.6
2019-08-25T07:06:02,42.805,6.029,-0.002,0.0,-0.017,102.0,107.0,98.0,13.4,1505.4,324.5,-0.7,1.8,2470.041,13.35,0.002,270.0
2019-08-25T07:09:03,42.805,6.029,0.021,0.012,0.001,103.0,107.0,101.0,13.3,1505.4,324.6,-0.8,1.8,2469.965,13.35,0.024,60.3
2019-08-25T07:12:04,42.805,6.029,0.021,0.01,0.022,105.0,107.0,101.0,13.3,1505.4,325.2,-0.7,1.8,2470.043,13.35,0.023,64.5
2019-08-25T07:15:05,42.805,6.029,0.002,0.029,0.015,103.0,107.0,102.0,13.4,1505.4,326.9,-0.7,1.8,2470.011,13.35,0.029,3.9
2019-08-25T07:18:06,42.805,6.029,0.01,0.018,0.013,105.0,106.0,98.0,13.4,1505.4,323.3,-0.7,1.8,2470.026,13.35,0.02,29.1
2019-08-25T07:21:07,42.805,6.029,0.013,0.012,0.015,103.0,107.0,100.0,13.4,1505.4,327.0,-0.7,1.8,2470.049,13.35,0.017,47.3
2019-08-25T07:24:08,42.805,6.029,0.008,0.0,-0.026,103.0,106.0,105.0,13.4,1505.4,326.0,-0.8,1.8,2470.051,13.35,0.008,90.0
2019-08-25T07:27:09,42.805,6.029,0.001,0.011,-0.014,103.0,105.0,98.0,13.4,1505.4,326.7,-0.7,1.8,2470.026,13.35,0.011,5.2
2019-08-25T07:30:10,42.805,6.029,0.018,-0.005,-0.009,103.0,106.0,99.0,13.4,1505.4,325.6,-0.7,1.8,2469.992,13.35,0.018,105.5
2019-08-25T07:33:11,42.805,6.029,0.026,-0.006,0.008,101.0,107.0,101.0,13.4,1505.4,325.0,-0.7,1.8,2470.042,13.35,0.026,103.0
2019-08-25T07:36:12,42.805,6.029,0.028,0.01,0.031,103.0,105.0,100.0,13.4,1505.4,326.8,-0.7,1.8,2470.015,13.35,0.029,70.4
2019-08-25T07:39:13,42.805,6.029,0.02,0.019,-0.02,103.0,106.0,100.0,13.4,1505.4,323.7,-0.7,1.8,2469.997,13.35,0.027,46.5
2019-08-25T07:42:14,42.805,6.029,0.01,0.026,0.021,103.0,106.0,98.0,13.4,1505.4,325.2,-0.7,1.9,2470.028,13.35,0.027,21.0
2019-08-25T07:45:15,42.805,6.029,0.036,0.017,0.0,104.0,106.0,100.0,13.4,1505.4,325.9,-0.7,1.8,2470.053,13.35,0.039,64.7
2019-08-25T07:48:16,42.805,6.029,0.027,-0.005,0.025,104.0,105.0,102.0,13.4,1505.4,326.4,-0.7,1.8,2470.011,13.35,0.027,100.5
2019-08-25T07:51:17,42.805,6.029,0.028,0.003,0.006,103.0,109.0,99.0,13.3,1505.4,328.6,-0.7,1.9,2470.026,13.35,0.028,83.9
2019-08-25T07:54:18,42.805,6.029,0.007,0.009,-0.031,102.0,106.0,100.0,13.3,1505.4,326.7,-0.7,1.9,2470.011,13.35,0.011,37.9
2019-08-25T07:57:19,42.805,6.029,0.047,-0.004,0.002,102.0,106.0,99.0,13.4,1505.4,325.6,-0.7,1.8,2470.032,13.35,0.047,94.9
2019-08-25T08:00:20,42.805,6.029,0.028,0.001,-0.027,103.0,107.0,99.0,13.4,1505.4,326.6,-0.7,1.8,2470.052,13.35,0.028,88.0
2019-08-25T08:03:21,42.805,6.029,0.028,0.027,-0.001,102.0,105.0,98.0,13.3,1505.4,324.4,-0.7,1.8,2469.967,13.35,0.038,46.0
2019-08-25T08:06:22,42.805,6.029,0.008,0.001,-0.003,102.0,106.0,99.0,13.4,1505.4,326.6,-0.7,1.8,2470.004,13.35,0.008,82.9
2019-08-25T08:09:23,42.805,6.029,0.047,0.03,0.034,102.0,106.0,101.0,13.3,1505.4,326.3,-0.7,1.8,2470.05,13.35,0.055,57.4
2019-08-25T08:12:24,42.805,6.029,0.036,0.021,0.008,101.0,108.0,100.0,13.4,1505.4,325.7,-0.7,1.8,2470.035,13.35,0.041,59.7
2019-08-25T08:15:25,42.805,6.029,-0.006,0.0,-0.025,103.0,106.0,99.0,13.4,1505.4,324.8,-0.7,1.8,2470.051,13.35,0.006,270.0
2019-08-25T08:18:26,42.805,6.029,0.006,0.022,-0.02,102.0,105.0,102.0,13.4,1505.4,326.2,-0.7,1.8,2469.985,13.35,0.022,15.3
2019-08-25T08:21:27,42.805,6.029,0.006,-0.004,-0.02,104.0,106.0,98.0,13.4,1505.4,324.6,-0.7,1.8,2470.011,13.35,0.007,123.7
2019-08-25T08:24:28,42.805,6.029,0.029,0.012,0.008,101.0,106.0,101.0,13.3,1505.4,324.0,-0.7,1.8,2470.068,13.35,0.031,67.5
2019-08-25T08:27:29,42.805,6.029,-0.007,0.017,-0.05,104.0,106.0,98.0,13.3,1505.4,326.3,-0.7,1.8,2469.993,13.35,0.018,337.6
2019-08-25T08:30:30,42.805,6.029,0.002,0.01,0.021,102.0,107.0,99.0,13.4,1505.4,324.0,-0.7,1.8,2470.015,13.35,0.01,11.3
2019-08-25T08:33:31,42.805,6.029,0.015,0.014,-0.03,105.0,108.0,98.0,13.4,1505.4,327.0,-0.7,1.8,2470.041,13.35,0.02,47.0
2019-08-25T08:36:32,42.805,6.029,0.002,-0.006,-0.03,102.0,107.0,99.0,13.4,1505.4,327.4,-0.7,1.8,2470.041,13.35,0.006,161.6
2019-08-25T08:39:33,42.805,6.029,0.001,-0.003,-0.033,104.0,106.0,98.0,13.4,1505.4,327.9,-0.7,1.8,2470.031,13.35,0.003,161.6
2019-08-25T08:42:34,42.805,6.029,0.006,0.016,0.012,103.0,106.0,99.0,13.4,1505.4,326.0,-0.7,1.8,2470.016,13.35,0.017,20.6
2019-08-25T08:45:35,42.805,6.029,0.034,0.015,0.017,102.0,106.0,100.0,13.4,1505.4,325.6,-0.7,1.8,2470.04,13.35,0.037,66.2
2019-08-25T08:48:36,42.805,6.029,0.032,0.022,0.016,102.0,107.0,98.0,13.4,1505.4,323.2,-0.7,1.8,2469.992,13.35,0.038,55.5
2019-08-25T08:51:37,42.805,6.029,0.008,0.008,0.013,102.0,106.0,98.0,13.4,1505.4,324.4,-0.7,1.8,2470.029,13.35,0.011,45.0
2019-08-25T08:54:38,42.805,6.029,0.029,0.024,0.028,101.0,107.0,100.0,13.4,1505.4,326.2,-0.7,1.8,2470.029,13.35,0.037,50.4
2019-08-25T08:57:39,42.805,6.029,0.016,0.01,0.01,101.0,107.0,100.0,13.3,1505.4,322.9,-0.7,1.8,2470.027,13.35,0.018,58.0
2019-08-25T09:00:40,42.805,6.029,0.0,0.008,-0.007,102.0,106.0,99.0,13.4,1505.4,324.4,-0.7,1.9,2469.977,13.35,0.008,0.0
2019-08-25T09:03:41,42.805,6.029,-0.008,-0.009,-0.013,103.0,110.0,99.0,13.3,1505.4,323.5,-0.7,1.8,2470.037,13.35,0.012,221.6
2019-08-25T09:06:42,42.805,6.029,0.0,0.019,-0.008,102.0,104.0,102.0,13.4,1505.4,325.3,-0.7,1.8,2470.046,13.35,0.019,0.0
2019-08-25T09:09:43,42.805,6.029,-0.025,0.001,-0.032,103.0,104.0,98.0,13.3,1505.4,327.1,-0.7,1.8,2470.028,13.35,0.025,272.3
2019-08-25T09:12:44,42.805,6.029,0.003,0.013,-0.024,102.0,107.0,99.0,13.4,1505.4,323.2,-0.7,1.8,2470.052,13.35,0.013,13.0
2019-08-25T09:15:45,42.805,6.029,0.012,0.006,-0.006,102.0,108.0,100.0,13.4,1505.4,325.0,-0.7,1.8,2470.009,13.35,0.013,63.4
2019-08-25T09:18:46,42.805,6.029,0.004,0.019,-0.008,101.0,107.0,99.0,13.3,1505.4,324.3,-0.7,1.8,2470.035,13.35,0.019,11.9
2019-08-25T09:21:47,42.805,6.029,-0.009,0.006,-0.016,101.0,106.0,99.0,13.4,1505.4,327.0,-0.7,1.8,2470.015,13.35,0.01,303.7
2019-08-25T09:24:48,42.805,6.029,-0.029,0.005,-0.061,102.0,107.0,99.0,13.4,1505.4,325.8,-0.7,1.8,2470.051,13.35,0.029,279.8
2019-08-25T09:27:49,42.805,6.029,-0.015,0.014,-0.03,101.0,107.0,99.0,13.3,1505.4,327.6,-0.7,1.9,2470.013,13.35,0.02,313.0
2019-08-25T09:30:50,42.805,6.029,-0.004,0.0,-0.015,101.0,106.0,99.0,13.4,1505.4,324.8,-0.7,1.8,2470.015,13.35,0.004,270.0
2019-08-25T09:33:51,42.805,6.029,0.003,0.01,-0.035,102.0,107.0,98.0,13.3,1505.4,327.4,-0.7,1.8,2470.041,13.35,0.01,16.7
2019-08-25T09:36:52,42.805,6.029,0.025,0.022,0.005,102.0,106.0,100.0,13.4,1505.4,324.2,-0.7,1.9,2469.999,13.35,0.033,48.7